Tracking 29967 objects as of 5-Dec-2024
HD Live streaming from Space Station
objects crossing your sky now

CZ-3C DEB

Track CZ-3C DEB now!


NORAD ID: 40196
Int'l Code: 2012-008F
Perigee: 593.7 km
Apogee: 34,047.6 km
Inclination: 21.9 °
Period: 604.9 minutes
Semi major axis: 23691 km
RCS: Unknown
Launch date: February 24, 2012
Source: People's Republic of China (PRC)
Launch site: Xichang Space Center, China (XSC)

Note: This is SATELLITE DEBRIS
Your satellite tracking list
Your tracking list is empty




NASA's NSSDC Master Catalog

Two Line Element Set (TLE):
1 40196U 12008F   24337.40451471 -.00000259  00000-0 -20886-2 0  9990
2 40196  21.8564  68.2555 7060264  74.0778 348.1141  2.38073167 95718
Source of the keplerian elements: AFSPC